Stündliche Wetter Ceber

Heute, 19 Januar, Dienstag

Zeit Temperatur Niederschläge Wind Luftdruck Luftfeuchtigkeit
00:00 -1°C° 0.3 mm 4 m/S 756 mmHg 98%
01:00 0°C° 0.3 mm 4 m/S 755 mmHg 98%
02:00 0°C° 0.2 mm 5 m/S 755 mmHg 98%
03:00 0°C° 0.2 mm 5 m/S 755 mmHg 97%
04:00 0°C° 0.2 mm 5 m/S 754 mmHg 97%
05:00 0°C° 0.1 mm 4 m/S 754 mmHg 98%
06:00 0°C° 0.1 mm 4 m/S 754 mmHg 98%
07:00 0°C° 0.1 mm 4 m/S 754 mmHg 98%
08:00 0°C° 0 mm 4 m/S 754 mmHg 98%
09:00 0°C° 0 mm 4 m/S 754 mmHg 98%
10:00 0°C° 0 mm 4 m/S 754 mmHg 98%
11:00 0°C° 0 mm 4 m/S 753 mmHg 97%
12:00 0°C° 0 mm 4 m/S 753 mmHg 96%
13:00 0°C° 0 mm 4 m/S 752 mmHg 95%
14:00 +1°C° 0.2 mm 3 m/S 751 mmHg 96%
15:00 0°C° 0.2 mm 3 m/S 751 mmHg 96%
16:00 0°C° 0.2 mm 3 m/S 750 mmHg 97%
17:00 0°C° 0.1 mm 3 m/S 750 mmHg 97%
18:00 0°C° 0.1 mm 3 m/S 749 mmHg 97%
19:00 0°C° 0.1 mm 3 m/S 749 mmHg 96%
20:00 -1°C° 0.4 mm 4 m/S 748 mmHg 96%
21:00 0°C° 0.4 mm 4 m/S 748 mmHg 96%
22:00 0°C° 0.4 mm 4 m/S 747 mmHg 96%
23:00 +1°C° 0.4 mm 5 m/S 748 mmHg 95%

Morgen, 20 Januar, Mittwoch

Zeit Temperatur Niederschläge Wind Luftdruck Luftfeuchtigkeit
00:00 +2°C° 0.4 mm 6 m/S 748 mmHg 94%
01:00 +3°C° 0.4 mm 7 m/S 748 mmHg 93%
02:00 +2°C° 0 mm 6 m/S 748 mmHg 92%
03:00 +2°C° 0 mm 6 m/S 748 mmHg 91%
04:00 +1°C° 0 mm 6 m/S 748 mmHg 90%
05:00 +1°C° 0 mm 5 m/S 748 mmHg 89%
06:00 +1°C° 0 mm 5 m/S 748 mmHg 88%
07:00 0°C° 0 mm 4 m/S 749 mmHg 88%
08:00 +1°C° 0 mm 4 m/S 748 mmHg 86%
09:00 +1°C° 0 mm 4 m/S 748 mmHg 85%
10:00 +1°C° 0 mm 4 m/S 748 mmHg 83%
11:00 +3°C° 0 mm 4 m/S 748 mmHg 82%
12:00 +3°C° 0 mm 4 m/S 748 mmHg 82%
13:00 +3°C° 0 mm 4 m/S 748 mmHg 81%
14:00 +3°C° 0 mm 4 m/S 748 mmHg 80%
15:00 +3°C° 0 mm 4 m/S 748 mmHg 79%
16:00 +3°C° 0 mm 4 m/S 747 mmHg 79%
17:00 +1°C° 0 mm 4 m/S 747 mmHg 79%
18:00 +1°C° 0 mm 4 m/S 748 mmHg 78%
19:00 +1°C° 0 mm 4 m/S 748 mmHg 78%
20:00 +1°C° 0 mm 4 m/S 747 mmHg 79%
21:00 +1°C° 0 mm 4 m/S 747 mmHg 79%
22:00 +2°C° 0 mm 3 m/S 747 mmHg 80%
23:00 +2°C° 0 mm 3 m/S 747 mmHg 77%

übermorgen, 21 Januar, Donnerstag

Zeit Temperatur Niederschläge Wind Luftdruck Luftfeuchtigkeit
00:00 +2°C° 0 mm 3 m/S 747 mmHg 75%
01:00 +2°C° 0 mm 3 m/S 747 mmHg 73%
02:00 +2°C° 0 mm 3 m/S 747 mmHg 72%
03:00 +2°C° 0 mm 3 m/S 746 mmHg 72%
04:00 +1°C° 0 mm 4 m/S 746 mmHg 71%
05:00 +2°C° 0 mm 3 m/S 746 mmHg 73%
06:00 +1°C° 0 mm 3 m/S 746 mmHg 75%
07:00 +1°C° 0 mm 3 m/S 746 mmHg 77%
08:00 +1°C° 0 mm 3 m/S 746 mmHg 80%
09:00 +1°C° 0 mm 3 m/S 746 mmHg 82%
10:00 +2°C° 0 mm 3 m/S 745 mmHg 84%
11:00 +2°C° 0 mm 3 m/S 745 mmHg 84%
12:00 +3°C° 0 mm 3 m/S 745 mmHg 85%
13:00 +4°C° 0 mm 3 m/S 745 mmHg 85%
14:00 +3°C° 0 mm 3 m/S 745 mmHg 86%
15:00 +2°C° 0 mm 3 m/S 744 mmHg 87%
16:00 +2°C° 0 mm 3 m/S 744 mmHg 88%
17:00 +2°C° 0 mm 3 m/S 744 mmHg 87%
18:00 0°C° 0 mm 4 m/S 744 mmHg 85%
19:00 0°C° 0 mm 4 m/S 744 mmHg 84%
20:00 +1°C° 0 mm 4 m/S 744 mmHg 84%
21:00 +1°C° 0 mm 4 m/S 744 mmHg 84%
22:00 +1°C° 0 mm 4 m/S 743 mmHg 84%
23:00 +1°C° 0 mm 4 m/S 743 mmHg 81%

22 Januar, Freitag

Zeit Temperatur Niederschläge Wind Luftdruck Luftfeuchtigkeit
00:00 +1°C° 0 mm 4 m/S 743 mmHg 79%
01:00 0°C° 0 mm 4 m/S 742 mmHg 76%
02:00 +1°C° 0 mm 3 m/S 742 mmHg 76%
03:00 +1°C° 0 mm 3 m/S 741 mmHg 77%
04:00 +1°C° 0 mm 3 m/S 740 mmHg 77%
05:00 +2°C° 0 mm 3 m/S 740 mmHg 80%
06:00 +1°C° 0 mm 4 m/S 740 mmHg 83%
07:00 +1°C° 0 mm 4 m/S 739 mmHg 86%
08:00 +1°C° 0 mm 4 m/S 739 mmHg 86%
09:00 +3°C° 0 mm 3 m/S 739 mmHg 87%
10:00 +3°C° 0 mm 3 m/S 738 mmHg 87%
11:00 +4°C° 0 mm 3 m/S 738 mmHg 85%
12:00 +4°C° 0 mm 4 m/S 739 mmHg 83%
13:00 +5°C° 0 mm 4 m/S 739 mmHg 81%
14:00 +5°C° 0 mm 4 m/S 739 mmHg 82%
15:00 +4°C° 0 mm 4 m/S 739 mmHg 84%
16:00 +3°C° 0 mm 4 m/S 740 mmHg 85%
17:00 +3°C° 0 mm 4 m/S 740 mmHg 87%
18:00 +2°C° 0 mm 3 m/S 741 mmHg 88%
19:00 +1°C° 0 mm 3 m/S 742 mmHg 90%
20:00 +1°C° 0 mm 3 m/S 742 mmHg 88%
21:00 0°C° 0 mm 4 m/S 743 mmHg 86%
22:00 0°C° 0 mm 4 m/S 744 mmHg 85%
23:00 0°C° 0 mm 4 m/S 744 mmHg 85%

23 Januar, Samstag

Zeit Temperatur Niederschläge Wind Luftdruck Luftfeuchtigkeit
00:00 0°C° 0 mm 4 m/S 744 mmHg 85%
01:00 -1°C° 0 mm 4 m/S 745 mmHg 86%
02:00 -1°C° 0 mm 4 m/S 745 mmHg 86%
03:00 0°C° 0 mm 3 m/S 745 mmHg 87%
04:00 -1°C° 0 mm 3 m/S 745 mmHg 87%
05:00 -1°C° 0 mm 3 m/S 745 mmHg 88%
06:00 -1°C° 0 mm 3 m/S 745 mmHg 88%
07:00 -2°C° 0 mm 2 m/S 745 mmHg 88%
08:00 -1°C° 0 mm 3 m/S 745 mmHg 84%
09:00 0°C° 0 mm 3 m/S 745 mmHg 81%
10:00 +1°C° 0 mm 3 m/S 745 mmHg 77%
11:00 +2°C° 0 mm 3 m/S 745 mmHg 76%
12:00 +2°C° 0 mm 3 m/S 744 mmHg 74%
13:00 +3°C° 0 mm 3 m/S 744 mmHg 73%
14:00 +2°C° 0 mm 3 m/S 744 mmHg 77%
15:00 +2°C° 0 mm 2 m/S 743 mmHg 82%
16:00 +2°C° 0 mm 2 m/S 743 mmHg 86%
17:00 0°C° 0 mm 3 m/S 742 mmHg 87%
18:00 0°C° 0 mm 3 m/S 742 mmHg 88%
19:00 -1°C° 0 mm 3 m/S 742 mmHg 89%
20:00 -1°C° 0 mm 2 m/S 742 mmHg 89%
21:00 -1°C° 0 mm 2 m/S 742 mmHg 89%
22:00 -1°C° 0 mm 2 m/S 741 mmHg 89%
23:00 -1°C° 0 mm 2 m/S 741 mmHg 88%

24 Januar, Sonntag

Zeit Temperatur Niederschläge Wind Luftdruck Luftfeuchtigkeit
00:00 -1°C° 0 mm 2 m/S 740 mmHg 87%
01:00 -1°C° 0 mm 2 m/S 740 mmHg 86%
02:00 -1°C° 0 mm 2 m/S 739 mmHg 86%
03:00 -1°C° 0 mm 2 m/S 739 mmHg 86%
04:00 -1°C° 0 mm 2 m/S 738 mmHg 86%
05:00 -1°C° 0 mm 2 m/S 738 mmHg 86%
06:00 -1°C° 0 mm 2 m/S 738 mmHg 86%
07:00 -1°C° 0 mm 3 m/S 737 mmHg 86%
08:00 -1°C° 0 mm 3 m/S 737 mmHg 88%
09:00 -1°C° 0 mm 4 m/S 737 mmHg 91%
10:00 -1°C° 0 mm 5 m/S 737 mmHg 93%
11:00 0°C° 0 mm 5 m/S 737 mmHg 91%
12:00 -1°C° 0 mm 6 m/S 737 mmHg 90%
13:00 -1°C° 0 mm 6 m/S 737 mmHg 88%
14:00 -1°C° 0 mm 6 m/S 737 mmHg 86%
15:00 -1°C° 0 mm 6 m/S 737 mmHg 84%
16:00 0°C° 0 mm 5 m/S 737 mmHg 83%
17:00 -2°C° 0.1 mm 6 m/S 737 mmHg 85%
18:00 -2°C° 0.1 mm 6 m/S 737 mmHg 88%
19:00 -3°C° 0.1 mm 7 m/S 737 mmHg 91%
20:00 -2°C° 0.1 mm 7 m/S 738 mmHg 88%
21:00 -2°C° 0.1 mm 7 m/S 738 mmHg 85%
22:00 -2°C° 0.1 mm 7 m/S 739 mmHg 83%
23:00 -3°C° 0.1 mm 7 m/S 739 mmHg 83%
Mehr zeigen

Wir brauchen deine Erlaubnis

Meteoprog und unser Service Anbieter werden persönliche Daten aufbewahren, so wie Cookies, Geräte Bezeichnung oder ähnliche Technologien von deinem Gerät und Prozess, so wie Persönliche Daten Inhalte und Werbungen, genauso wie social Media und den Verkehr zu analysieren.

  • Aufbewahrung und/oder Zugang zu deiner Geräte Informationen.

    Cookies, Geräte Bezeichnung oder andere Informationen, können aufbewahrt oder Zugang zu deinem Gerät erhalten, für den Grund, der oben angegeben wird.

  • Personalisierte Werbung und Inhalte, Messungen, Einblick in das Publikum und Produkt Entwicklung.

    Werbungen und Inhalte können personalisiert werden, basierend auf ein Profil. Mehr Daten können besser personalisierte Werbungen und Inhalte hinzufügen. Werbung und Inhalte können gezeigt und gemessen werden. Einblicke über das Publikum, welche die Werbung gesehen haben und den Inhalt, können abgeleitet werden. So wie Daten können genutzt werden, um es zu verbessern oder die Benutzer Erfahrung zu verbessern das System und die Software.

Wenn du “Ich stimme zu” klickst, erlaubst du uns, die Cookies zu benutzen die Geräte Bezeichnung, den Web oder ähnliche Technologien zu benutzen. Deine Settings, können in deinem Gerät bei deinem Browser geändert werden.

Für den bestimmten Zweck, berechtigten Interessen beruhen darauf, mehr als auf den Inhalt. Du kannst mehr darüber in unseren Privaten und Cookie Politik lesen.